Weather History for KVTN - January, 2014

Change the Weather History Date:

Saturday, January 11, 2014

  Actual Average Record
Temperature  
Mean Temperature 39 °F 23 °F  
Max Temperature 50 °F 36 °F 64 °F (1987)
Min Temperature 27 °F 10 °F -32 °F (1918)
Degree Days  
Heating Degree Days 26 42  
Month to date heating degree days 467 462  
Since 1 July heating degree days 3459 3357  
Cooling Degree Days 0 0  
Month to date cooling degree days 0 0  
Year to date cooling degree days 0 0  
Moisture  
Dew Point 26 °F    
Average Humidity 59    
Maximum Humidity 85    
Minimum Humidity 32    
Precipitation  
Precipitation 0.00 in 0.01 in 0.22 in (1905)
Month to date precipitation 0.02 0.10  
Year to date precipitation 0.02 0.10  
Snow  
Snow 0.00 in 0.10 in 2.60 in (1905)
Month to date snowfall 0.5 1.5  
Since 1 July snowfall 19.5 14.2  
Snow Depth 0.00 in    
Sea Level Pressure  
Sea Level Pressure 29.72 in    
Wind  
Wind Speed 13 mph (WSW)    
Max Wind Speed 21 mph    
Max Gust Speed 28 mph    
Visibility 10 miles    
Events      
T = Trace of Precipitation, MM = Missing Value Source: NWS Daily Summary

Daily Weather History Graph

Daily Weather History Graph

Search for Another Location

Airport or City:

Trip Planner

Search our weather history database for the weather conditions in past years. The results will help you decide how hot, cold, wet, or windy it might be!

Date:

Astronomy

Jan. 11, 2014 Rise Set
Actual Time 8:11 AM CST 5:28 PM CST
Civil Twilight 7:40 AM CST 6:00 PM CST
Nautical Twilight 7:05 AM CST 6:35 PM CST
Astronomical Twilight 6:30 AM CST 7:09 PM CST
Moon 2:15 PM CST (1/11) 4:16 AM CST (1/11)
Length of Visible Light 10h 20m
Length of Day
9h 17m
Waxing Gibbous, 83% of the Moon is Illuminated
Jan 11
Waxing Gibbous
Jan 15
Full
Jan 23
Last Quarter
Jan 30
New
Feb 6
First Quarter

Hourly Weather History & Observations

Time (CST) Temp. Windchill Dew Point Humidity Pressure Visibility Wind Dir Wind Speed Gust Speed Precip Events Conditions
12:52 AM 36.0 °F 26.3 °F 26.1 °F 67% 29.71 in 10.0 mi WNW 16.1 mph - N/A   Overcast
1:52 AM 35.1 °F 26.4 °F 28.9 °F 78% 29.71 in 10.0 mi WNW 12.7 mph - N/A   Overcast
2:52 AM 33.1 °F 24.4 °F 27.0 °F 78% 29.74 in 10.0 mi West 11.5 mph - N/A   Clear
3:52 AM 32.0 °F 21.2 °F 26.1 °F 79% 29.75 in 10.0 mi WNW 16.1 mph - N/A   Clear
4:52 AM 32.0 °F 21.6 °F 26.1 °F 79% 29.79 in 10.0 mi WNW 15.0 mph - N/A   Clear
5:52 AM 32.0 °F 21.6 °F 25.0 °F 75% 29.83 in 10.0 mi WNW 15.0 mph - N/A   Clear
6:52 AM 28.9 °F 18.6 °F 24.1 °F 82% 29.87 in 10.0 mi West 12.7 mph - N/A   Clear
7:52 AM 27.0 °F 18.0 °F 23.0 °F 85% 29.87 in 10.0 mi WNW 9.2 mph - N/A   Clear
8:52 AM 28.9 °F 21.1 °F 23.0 °F 78% 29.89 in 10.0 mi WNW 8.1 mph - N/A   Clear
9:52 AM 36.0 °F 29.0 °F 26.1 °F 67% 29.89 in 10.0 mi West 9.2 mph - N/A   Clear
10:52 AM 42.1 °F 37.1 °F 27.0 °F 55% 29.88 in 10.0 mi WNW 8.1 mph - N/A   Clear
11:52 AM 44.1 °F 36.8 °F 26.1 °F 49% 29.86 in 10.0 mi West 16.1 mph - N/A   Clear
12:52 PM 46.0 °F 39.6 °F 26.1 °F 46% 29.81 in 10.0 mi West 15.0 mph - N/A   Clear
1:52 PM 48.9 °F - 23.0 °F 36% 29.76 in 10.0 mi West 13.8 mph - N/A   Clear
2:52 PM 50.0 °F - 24.1 °F 36% 29.73 in 10.0 mi SW 10.4 mph - N/A   Clear
3:52 PM 50.0 °F - 21.9 °F 33% 29.70 in 10.0 mi SW 15.0 mph - N/A   Clear
4:52 PM 46.0 °F 41.0 °F 23.0 °F 40% 29.69 in 10.0 mi SSW 10.4 mph - N/A   Clear
5:52 PM 42.1 °F 36.1 °F 24.1 °F 49% 29.67 in 10.0 mi South 10.4 mph - N/A   Clear
6:52 PM 39.9 °F 34.5 °F 25.0 °F 55% 29.63 in 10.0 mi South 8.1 mph - N/A   Clear
7:52 PM 45.0 °F 37.4 °F 27.0 °F 49% 29.58 in 10.0 mi SSW 18.4 mph - N/A   Clear
8:52 PM 43.0 °F 36.0 °F 28.0 °F 56% 29.56 in 10.0 mi SW 13.8 mph - N/A   Clear
9:52 PM 42.1 °F 34.5 °F 27.0 °F 55% 29.52 in 10.0 mi SSW 15.0 mph - N/A   Clear
10:52 PM 43.0 °F 36.0 °F 28.0 °F 56% 29.49 in 10.0 mi SW 13.8 mph - N/A   Clear
11:52 PM 45.0 °F 38.2 °F 27.0 °F 49% 29.45 in 10.0 mi SW 15.0 mph - N/A   Clear